Voltar ao catálogo

KUIPER-00120

AtivoComunicaçõesLEO
NORAD 65762·PAYLOAD·🇺🇸 United States

Lançado Sep 25, 2025 de Cape Canaveral Space Force Station

Loading…

Próximas Passagens (próximas 24 horas)

TLE

AtualizadoSource: CelesTrak SupGP

Época: Sep 15, 2026, 02:42 UTC

1 65762C 25217A   26258.11300926  .00000787  00000+0  10305-3 0  2589
2 65762  51.8979 295.4192 0000462  69.0001  34.1438 14.79930229    17

Acompanhe KUIPER-00120 em tempo real com AllMySat

Download on the App Store